 テレメトリ	内   容		          換算値	単 位
 F1ー12	磁気センサーX軸	=      109313.7 nT
 F1ー13	磁気センサーZ軸	=	60294.1	nT
 F0ー15	太陽電池発生電流	= 	 1009.8	mA
 F0ー16	B充放電電流	        =	  118.4	mA
 F0ー17	B端子電圧	        =	   15.7	V
 F0ー18	B中間端子電圧	        =	    6.9	V
 F0ー19	バス電圧        	=	   17.3	V
 F0ー20	+5安定化電圧	        =	    5.1	V
 F0ー21	ー5V安定化電圧	        =	   -4.9	V
 F0ー22	+10V安定化電圧	=	   10.1	V
 F0ー23	JTA出力電力	        =	  -91.6	mW
 F0ー24	JTD出力電力	        = 	 1568.3	mW
 F0ー25	Bセル温度	        =	   31.8	℃
 F0ー26	構体温度ー1	        =	   28.3	℃
 F0ー27	構体温度ー2	        =	   28.7	℃
 F0ー28	構体温度ー3	        =	   29.8	℃
 F0ー29	構体温度ー4	        =	   29.1	℃
   
  *脇田さんの換算例と良く一致しております.
 4 )FO-20(ふじ2号):JAモードの運用で順調に作動しています.
     アナログモードにてのQSOや思わぬDXが楽しめます.
  ■ 軌道要素1 :出典は「ふじ3号」に同じ.   
 
 FO-20
 1 20480U 90013C   97274.84671150 -.00000021  00000-0  18795-4 0 00155
 2 20480 099.0580 216.4321 0541420 135.8733 228.6899 12.83238735358385
  ■ 軌道要素2 :出典は「ふじ3号」に同じ.   
 
  Satellite: FO-20
  Catalog number: 20480
  Epoch time:      97274.84671150
  Element set:    0015
  Inclination:      099.0580 deg
  RA of node:       216.4321 deg
  Eccentricity:    0.0541420
  Arg of perigee:   135.8733 deg
  Mean anomaly:     228.6899 deg
  Mean motion:   12.83238735 rev/day
  Decay rate:       -2.1e-07 rev/day^2
  Epoch rev:           35838
  Checksum:              307
   ----------------------------------------------------------------
 5 ) FO−20 JAアナログモードでRS 59程度で(受信感度はア
   ンテナより見て約125db)非常に強力な信号で受信できています。
   衛星の現在の状態を符号化しビーコン波にのっているCW テレメトリです.
 (熊本市)
    
   10月4日(土) JST  13:28 のパスの 一部分です。
    AS35863C  4OCT97
    JST 13:28 - 13:44
  
               169 170 285 284 252 261 352 352 353 401 435 402 400 500 500 500 500 500  
 HI HI 134 148 168 170 285 284 252 261 352 352 351 353 401 435 402 400 500 530 500 500  
 HI HI 133 144 170 172 285 283 253 261 352 352 351 353 401 435 402 400 500 530 500 500 
 HI HI 129 148 170 171 285 284 253 261 352 352 351 353 401 435 402 400 500 530 500 500 
 HI HI 127 148 169 171 285 284 254 261 352 352 351 353 401 435 402 400 500 530 500 500  
 HI HI 126 148 169 170 285 284 253 261 352 352 351 353 401 435 402 400 500 530 500 500 
 HI HI 129 148 169 170 285 284 252 261 352 352 351 353 401 435 402 400 500 530 500 500 
 HI HI 131 148 169 170 285 284 253 261 352 352 351 353 401 435 402 400 500 539 500 500 
 HI HI 136 148 169 170 285 284 252 261 352 352 351 353 401 435 402 400 500 530 500 500 
 HI HI 138 148 169 170 285 284 252 261 352 352 351 353 401 435 402 400 500 530 500 500 
 HI HI 140 148 169 170 285 284 252 261 352 352 351 353 401 435 402 400 500 530 500 500
 HI HI 141 148 169 170 285 284 252 261 352 351 351 353 401 435 402 400 500 530 500 500  
 HI HI 141 148 169 170 285 284 252 261 352 351 351 353 401 435 402 400 500 530 500 500 
 HI HI 142 148 169 170 285 284 252 261 352 351 351 353 401 435 402 400 500 530 500 500 
 HI HI 141 148 169 170 285 284 252 261 352 351 351 353 401 435 402 400 500 530 500 500 
 HI HI 141 148 169 170 285 284 250 261 352 351 351 353 401 435 402 400 500 530 500 500
 HI HI 141 148 169 170 285 284 250 261 352 351 351 353 401 435 402 400 500 530 500 500 
 HI HI 140 148 169 170 285 284 240 261 352 351 351 353 401 435 402 400 500 530 500 500 
 HI HI 140 148 169 170 285 284 242 261 352 351
  6)上記テレメトリの上から2行目を換算した例です.
    CWアナログテレメトリ換算値  FOー20(ふじ2号)	
  テレメトリ	内     容		換算値	単  位
 1A	太陽電池発生電流	=	760.0	[mA]
 1B	バッテリ充放電電流	=	-80.0	[mA]
 1C	バッテリ端子電圧	=	 15.8	[ V ]
 1D	バッテリ1/2電圧	=	  7.3	[ V ]
 2A	バ ス 電圧	        =	 17.8	[ V ]
 2B	+5V安定化電圧	= 	  5.3	[ V ]
 2C	JTA送信出力	        =     1347.7	[ mW ]
 2D	校正電圧	        =	  1.3	[ V] 
 3A	バッテリ温度	        =	 15.0	[ ℃ ]
 3B	構体温度ー1	        =	 15.0	[ ℃ ]
 3C	構体温度ー2	        =       16.5	[ ℃ ]
 3D	構体温度ー3	        =	 13.5	[ ℃ ]
  
* 換算にはWINDOWS 95のEXCELにエンジニアリング関数をインストールして使用.				
 --------------------------------------------------------------------------
  ● [jamsat-bb:2858]に英国のハムがFO−20をどのように評価しているかが
     JJ1WTK局坂本和志氏により紹介されていますので転載させて頂きました。
   ときどきメールのやりとりをしているイギリスの G8VR,Ken からこんなメールが
 届きましたので紹介します。意訳しているところもあります。
 1937年ライセンスと書いてありますから、みなさんの年齢と引き算してみてくだ
 さい。Kenは、AMSAT-UK(英国)の機関紙 OSCAR Newsに、アナログモードオペレ
 ーターのための記事「Mode A & K Operaters」(だったかな、ちょっとウロ覚
 え)を書いている人です。
 > Date: Sun, 3 Aug 1997 03:15:14 -0400 (EDT)
 > From: G8vr@aol.com
 > To: jj1wtk@jamsat.or.jp
 ハローカズ、FO-20が連続してJAモードで運用されていることを、われわれアナ
 ログモードの オペレーターがどれだけ感謝しているか、またいかに評価してい
 るかをぜひ日本のみなさん、JAMSATのみなさんに伝えてください。われわれは、
 いつもイギリスから大西洋横断のQSOをFO-20を使って行っており、とても楽しま
 せてもらっています。ダウンリンクは強力だし、アップリンクに対する感度もす
 ばらしいです。
 RS-10がもはや使えない今日、Phase-3D もまだ上がっていませんし、FO-20のJA
 モードは大変貴重です。
 FO-20がJAモードなのはありがたいね、いつまでもずっと長くJAモードのままで
 いてくれたらいいねと多くのアマチュアと話をしています。
 > Hello Kazu,   Will you please tell Jamsat how very much we analogue operators
 > appreciate FO 20 being in Mode JA.  We are having excellent transatlantic
 > contacts via this satellite from the UK and it is a pleasure to use it.  The
 > downlink is strong and the uplink receiver very sensitive.  With RS 10 no
 > longer operating , and  the  problems with the launch of P3D,  JA mode is
 > very important and I know I speak for many amateurs when I say that we hope
 > that FO 20 will be in this mode for a very long time.  Thank you very much.
 >  73 Ken G8VR (Licensed in 1937! )    
 
 ● FOー20のJAモードでCWアナログQSO
   [jamsat-bb:2860]に投稿されたJA6BX局江崎昌男氏のQSOの状況です.
   
   8月5日 14:50(JST)に FO-20 で RA3DQT と CW での QSO ができました。
 LOS 寸前の30秒程の QSO でしたが、当局にとって FO-20 で 1st RA3 です。
  FO-20 の北向き軌道で LOS 2-3 分前から CW で CQ を出していると時々
  U-Zone や 北欧の局が拾ってくれることがあるようです。
  
                          73, de JA6BX - Y. Esaki 34122731@people.or.jp 
                                                 or, ja6bx@jamsat.or.jp
                                                        ja6bx@amsat.org
 =========================   JARL運用情報   =========================
   *JARL NEWS 9月号にFO−29/ふじ3号,FO−20/ふじ2号の
    長期運用予定について記載されていましたのでご紹介します.
    デジトーカの運用がかなり強化されています.
        ■ ふじ3号/FO−29 ■
     
         月 日           切替時刻       運用モード
     
    10月  3日(金)  08:46(17:46)    デジトーカ
          13日(月)  08:26(17:26)   JD1200
          17日(金)  08:18(17:18)    デジトーカ
          20日(月)  07:21(16:21)    JD9600
          24日(金)  07:13(16:13)    デジトーカ
          27日(月)  07:59(16:59)    JA
          31日(金)  07:51(16:51)   デジトーカ
    11月  4日(火)  07:43(16:43)    JD1200
            7日(金)  08:29(17:29)    デジトーカ
          10日(月)   07:31(16:31)    JD9600
          14日(金)  07:23(16:23)    JA
          21日(金)  08:01(17:01)    デジトーカ
          25日(火)  07:53(16:53)    JD1200
          28日(金)  08:39(17:39)    JD9600
    12月  5日(金)  07:33(16:33)    JA                   
 
  *切替時刻はUTC(協定世界時)で表示しています.(   )内の時刻は
    JST(日本標準時)です.
     モードの表記は次のとうりです.
       JA:アナログ系運用
       JD1200:ディジタル系1200bps PSKメールボックス運用(SSB)
       JD9600:ディジタル系9600bps FSKメールボックス運用(FM)
       デジトーカ         FM音声メッセージ送信
    ■ ふじ2号/FO−20 ■
     「ふじ2号」はアナログ系の連続運用とします.   
                                               
   =============   JAS-2 (ふじ3号)と現在までの情報   ===========
  
  A.電話によるふじ3号の運用情報
      社団法人日本アマチュア連盟によるサービス
           TEL .   03− 3942 − 1000
  B.アマチュア無線FAXサービス
      JARLによるふじ3号の軌道情報(オービットカレンダー)
         FAX No.  03− 3233 −0055 
  C.WWWブラウザで情報を簡単に見れる人のためにJAS−2
     ふじ3号の衛星としての運用されるまでの名前)の概要、打ち上げ
     までの状況、運用中における状況を説明したホームページを紹介し
     ておきます.
    1)社団法人日本アマチュア無線連盟(JARL)のホームページ
          http://www.jarl.or.jp/
    2)宇宙開発事業団(NASDA)ホームページ 
          http://www.nasda.go.jp/
         打上げ衛星 :地球観測プラットフォーム技術衛星(ADEOS) 
                       アマチュア衛星3号(JAS-2)
          http://yyy.tksc.nasda.go.jp/Home/Press/Press-j/jas-2_j.html
                                                       
  D.JAMSATによる軌道情報の活用
        JAMSATのホームページまたはjamsat−kepsの軌道要素より
      衛星の軌道情報を得る.
      
     JAMSATホームページURL    http://www.jamsat.or.jp
       上記ホームページでは各地で行われるアマチュア通信衛星に関する
      ミューティングのお知らせや世界のアマチュア衛星に関する情報が
      満載されています.
  =========================  その他の情報  ===============================
  
   ● JDディジタルテレメトリの解析(5)
     テレメトリ解析については今年のJARL NEWS3、4月号あるいは最新版
    がJARLのホームページ
          http://www.jarl.or.jp/Japanese/3_Fuji/jdtlm.htm 
    に詳しく説明されているので参照してください.
      ここではJDディジタルテレメトリの2つのフレームがF0なのかF1で
    あるかの判別法について少し説明してみましょう.
      テレメトリの最初の2桁の16進数の下位1桁目が偶数であればそのフレー
    ムは0(F0)です.
    0、2、4、6、8、A、C、EのときがそのフレームがF0に該当します.
    同様に奇数であればそのフレームは1(F1)です.
    1、3、5、7、9、B、D、FのときそのフレームはF1に該当します.
 =========================================================================
       JAMSATのメンバーのご協力によりJH6MME(高山 秀造)が
    執筆・編集を担当しております.ご指摘の意見、疑問やこのようにしたら
    というアイデアがありましたら小さなことでもかまいませんので気軽に下
    記アドレスまでご連絡ください.jamsat−newsからjas2
    infoへの転載をJH4PHW局坂井さんに担当して頂いております.
                    Eーmail :   jh6mme@jamsat.or.jp : jh4phw@jamsat.or.jp             
 ===============================   END  ===============================